Regional Weather Roundup
Issued by NWS Bismarck, ND

Home | Current Version | Previous Version | Text Only | Print | Product List | Glossary On
Versions: 1 2 3 4 5 6 7 8 9 10 11 12 13 14 15 16 17 18 19 20 21 22 23 24 25 26 27 28 29 30 31 32 33 34 35 36 37 38 39 40 41 42 43 44 45 46 47 48 49 50
000
ASUS43 KBIS 260810
RWRBIS

NWR BROADCAST TEXT
NATIONAL WEATHER SERVICE BISMARCK ND
300 AM CDT SUN MAR 26 2017

NOTE: "FAIR" INDICATES FEW OR NO CLOUDS BELOW 12,000 FEET WITH NO
SIGNIFICANT WEATHER AND/OR OBSTRUCTIONS TO VISIBILITY.


CITY           SKY/WX    TMP DP  RH WIND       PRES   REMARKS
WILLISTON      FAIR      44  34  67 NE6       29.90S
MINOT          CLOUDY    41  35  79 SW3       29.90R
MINOT AFB      CLOUDY    36  34  90 CALM      29.89S
BISMARCK       CLOUDY    41  35  79 S7        29.93S
DICKINSON      CLOUDY    46  30  53 NE7       29.89R
GARRISON         N/A     39  32  76 CALM      29.90S
HETTINGER ARPT CLOUDY    41  36  82 N3        29.91R
JAMESTOWN      FOG       33  33 100 S8        29.95S VSB 1/2
HAZEN          CLOUDY    43  34  70 S8        29.92F
LINTON           N/A     36  36 100 SE5       29.96R
MANDAN         CLOUDY    39  34  81 S6        29.92F
RUGBY            N/A     36  36 100 S9        29.90F
STANLEY        PTSUNNY   37  37 100 NE5       29.92R
TIOGA          FAIR      36  36 100 E5        29.91S
WATFORD CITY   PTSUNNY   43  32  65 SE6       29.89S
$$

CITY           SKY/WX    TMP DP  RH WIND       PRES   REMARKS
GRAND FORKS    CLOUDY    34  33  96 S10       29.98F
GRAND FORKS AF CLOUDY    35  34  95 S12       29.97F
DEVILS LAKE    CLOUDY    34  32  92 S6        29.94S
FARGO          CLOUDY    35  33  92 SE3       30.00R
CAVALIER         N/A     34  32  93 S9        29.95F
GRAFTON        FAIR      34  34 100 S6        30.00R
GWINNER        CLOUDY    34  34 100 MISG      29.97F FOG
LANGDON        PTSUNNY   34  34 100 S15       29.93F
ROLLA          CLOUDY    34  34 100 SW5       29.91F
$$

CITY           SKY/WX    TMP DP  RH WIND       PRES   REMARKS
ABERDEEN       CLOUDY    35  33  92 E5        29.97S FOG
MOBRIDGE       CLOUDY    39  34  82 S12       29.91S
BUFFALO          N/A     46  34  62 N14       29.82S
RAPID CITY     CLOUDY    45  31  58 N8        29.84R
GLASGOW        MOCLDY    41  29  62 E7        29.87F
SIDNEY         FAIR      40  31  70 CALM      29.90R
WOLF POINT     FAIR      38  32  79 E5        29.90R
GLENDIVE       FAIR      43  32  65 W6        29.91S
MILES CITY     MOCLDY    46  36  68 S7        29.91S
BAKER          LGT RAIN  42  39  89 S5        29.93S
$$

CITY           SKY/WX    TMP DP  RH WIND       PRES   REMARKS
BILLINGS       FAIR      42  33  70 W9        29.92R
GREAT FALLS    FAIR      31  21  66 W10       29.93S
REGINA         CLOUDY    36  34  93 SE7       29.87R
ESTEVAN        PTCLDY    34  34 100 S8        29.89S
$$




USA.gov is the U.S. government's official web portal to all federal, state and local government web resources and services.